Location: Jefferson
(30.9666°N, 81.7901°W)
Time: 06:42:58
(UTC+00:00)

ARIANE 6 FM1 Upper Stage - Pass Details

Date: 21 September 2024
Orbit: 563 x 595 km, 62.0° (Epoch: 12 October)

Event Time Altitude Azimuth Distance (km) Brightness Sun altitude
Exits shadow 09:06:36 - 350° (N) 2,223 5.8 -27.9°
Reaches altitude 10° 09:07:28 10° 355° (N) 1,932 5.5 -27.7°
Maximum altitude 09:11:08 26° 52° (NE) 1,194 4.9 -27.0°
Drops below altitude 10° 09:14:47 10° 109° (ESE) 1,925 6.0 -26.2°
Sets 09:17:20 0° 122° (ESE) 2,822 6.8 -25.7°
